Location: Arrien
(43.3167°N, 0.1500°W)
Time: 04:45:20
(UTC+00:00)

Cosmos 1455 Rocket - Pass Details

Date: 15 October 2021
Orbit: 604 x 630 km, 82.5° (Epoch: 08 December)

Event Time Altitude Azimuth Distance (km) Brightness Sun altitude
Rises 17:50:32 0° 149° (SSE) 2,874 6.2 -6.8°
Reaches altitude 10° 17:53:14 10° 132° (SE) 1,980 5.3 -7.3°
Maximum altitude 17:56:21 19° 86° (E) 1,473 4.4 -7.8°
Drops below altitude 10° 17:59:30 10° 41° (NE) 2,003 5.3 -8.4°
Sets 18:02:15 0° 24° (NNE) 2,920 6.2 -8.9°
